Simultaneous Nadir Overpasses (SNOs) Predictions

Prediction of SNOs between NOAA-19 and NPP Satellite Orbit:

Table of predicted SNOs for the next 14.0 days since TLE Epoch: 12/15/2012
Index Date (NOAA-19) Time (NOAA-19) Lat,Lon (NOAA-19) SZA (NOAA-19 ) Date (NPP) Time (NPP) Lat,Lon (NPP) SZA (NPP ) Distance(km) Time Diff (sec)
1 12/22/2012 09:56:28 -80.82, 160.41 72.66 12/22/2012 09:57:35 -80.82, 160.32 72.68 1.71 67
2 12/22/2012 10:47:35 80.82, -32.32 107.34 12/22/2012 10:48:20 80.82, -32.27 107.31 0.86 45
3 12/22/2012 11:38:31 -80.79, 135.56 72.75 12/22/2012 11:39:03 -80.79, 135.61 72.78 0.84 32
4 12/22/2012 12:29:35 80.74, -56.10 107.09 12/22/2012 12:29:46 80.74, -56.28 107.10 3.17 11
5 12/22/2012 13:20:32 -80.72, 111.41 72.96 12/22/2012 13:20:30 -80.73, 111.24 72.93 3.18 2
6 12/22/2012 14:11:38 80.70, -80.96 106.99 12/22/2012 14:11:14 80.70, -81.00 107.00 0.66 24
7 12/22/2012 15:02:35 -80.69, 86.55 73.06 12/22/2012 15:01:58 -80.69, 86.51 73.03 0.62 37
8 12/22/2012 15:53:42 80.69,-106.17 106.94 12/22/2012 15:52:43 80.68,-106.07 106.95 1.89 59




NCC Satellite Simultaneous Nadir Overpasses (SNOs) Prediction Service
